Home   Weather   Prešov   Past weeks
Flag for Slovakia

Past Weather in Prešov, Slovakia — Yesterday and Last 2 Weeks

Now
68 °F

Sunny.


Feels Like: 68 °F
Forecast: 83 / 62 °F
Wind: 2 mph from North

Location: Kosice - Barca

Current Time: Jul 20, 2019 at 9:39:25 am

Latest Report: Jul 20, 2019 at 9:00 am


Visibility: 10 mi

Pressure: 30.09 "Hg

Humidity: 73%

Dew Point: 59 °F

Location of PrešovLocation

Past Weather in Prešov — Graph

°F

Prešov Temperature Yesterday

Maximum temperature yesterday: 79 °F (at 1:00 pm)
Minimum temperature yesterday: 52 °F (at 3:30 am)
Average temperature yesterday: 66 °F

High & Low Weather Summary for the Past Weeks

 TemperatureHumidityPressure
High82 °F (Jul 6, 4:00 pm)94% (Jul 6, 5:30 am)30.09 "Hg (Jul 6, 5:30 am)
Low46 °F (Jul 12, 2:00 am)31% (Jul 15, 3:30 pm)29.65 "Hg (Jul 7, 2:30 pm)
Average65 °F62%29.89 "Hg
* Reported Jul 5 8:00 am — Jul 20 8:30 am, Prešov. Weather by CustomWeather, © 2019

Note: Actual official high and low records may vary slightly from our data, if they occured in-between our weather recording intervals... More about our weather records

Advertising

Prešov Weather History for the Previous 24 Hours

Scroll right to see more
 ConditionsComfort  
Time TempWeatherWind HumidityBarometerVisibility
8:30 am
Sat, Jul 20
66 °FSunny.1 mph83%30.09 "Hg10 mi
8:00 am64 °FSunny.1 mph83%30.09 "Hg10 mi
7:30 am64 °FSunny.1 mph83%30.07 "Hg10 mi
7:00 am63 °FSunny.1 mph88%30.07 "Hg10 mi
6:30 am63 °FSunny.2 mph83%30.07 "Hg10 mi
6:00 am61 °FSunny.1 mph88%30.07 "Hg10 mi
5:30 am61 °FSunny.1 mph88%30.07 "Hg10 mi
5:00 am63 °FSunny.2 mph83%30.07 "Hg10 mi
4:30 am61 °FClear.2 mph88%30.07 "Hg10 mi
4:00 am61 °FClear.2 mph88%30.07 "Hg10 mi
3:30 am61 °FClear.3 mph88%30.07 "Hg10 mi
3:00 am61 °FClear.2 mph88%30.07 "Hg10 mi
2:30 am61 °FClear.5 mph88%30.07 "Hg10 mi
2:00 am61 °FClear.5 mph88%30.07 "Hg10 mi
1:30 am63 °FClear.2 mph83%30.07 "Hg10 mi
1:00 am63 °FPassing clouds.5 mph83%30.07 "HgN/A
12:30 am61 °FPassing clouds.3 mph88%30.07 "HgN/A
12:00 am63 °FPassing clouds.3 mph83%30.07 "HgN/A
11:30 pm
Fri, Jul 19
63 °FPassing clouds.3 mph83%30.07 "HgN/A
11:00 pm63 °FPassing clouds.2 mph83%30.04 "HgN/A
10:30 pm66 °FClear.2 mph68%30.07 "Hg10 mi
10:00 pm64 °FPassing clouds.3 mph78%30.04 "HgN/A
9:30 pm66 °FPassing clouds.2 mph73%30.04 "HgN/A
9:00 pm66 °FPassing clouds.2 mph73%30.04 "HgN/A
8:30 pm70 °FPassing clouds.1 mph57%30.04 "HgN/A
8:00 pm72 °FPassing clouds.3 mph53%30.04 "HgN/A
7:30 pm72 °FPassing clouds.6 mph65%30.04 "HgN/A
7:00 pm73 °FPassing clouds.6 mph61%30.04 "HgN/A
6:30 pm73 °FPassing clouds.8 mph57%30.01 "HgN/A
6:00 pm75 °FSunny.10 mph54%30.01 "Hg10 mi
5:30 pm77 °FPassing clouds.5 mph51%30.01 "HgN/A
5:08 pm77 °FSunny.7 mph47%30.01 "Hg10 mi
5:00 pm73 °FSunny.9 mph53%30.01 "Hg10 mi
4:30 pm73 °FSunny.8 mph57%30.01 "Hg10 mi
4:00 pm72 °FSunny.8 mph61%30.01 "Hg10 mi
3:30 pm70 °FThundershowers. Scattered clouds.5 mph64%30.01 "HgN/A
3:00 pm70 °FThundershowers. Scattered clouds.6 mph64%30.01 "HgN/A
2:30 pm72 °FThunderstorms. Scattered clouds.9 mph65%30.01 "HgN/A
2:00 pm70 °FThunderstorms. Partly sunny.8 mph64%30.04 "HgN/A
1:30 pm77 °FScattered clouds.8 mph47%30.01 "HgN/A
1:00 pm79 °FPassing clouds.8 mph48%30.01 "HgN/A
12:30 pm77 °FPassing clouds.9 mph51%30.01 "HgN/A
12:00 pm77 °FPassing clouds.8 mph51%30.01 "HgN/A
11:30 am77 °FPassing clouds.7 mph47%30.04 "HgN/A
11:00 am75 °FSunny.5 mph50%30.04 "Hg10 mi
10:30 am72 °FSunny.6 mph57%30.04 "Hg10 mi
10:00 am70 °FPassing clouds.5 mph60%30.04 "HgN/A
9:30 am70 °FPassing clouds.3 mph60%30.04 "HgN/A
9:00 am68 °FSunny.2 mph64%30.04 "Hg10 mi
Weather by CustomWeather, © 2019

See weather overview